This is the latest recevied weather packets stored in our database for station/object HS1AXC-1. If no packets are shown the sender has not sent any weather packets the latest 10 day(s).
| Time | Temp. | Humidity | Pressure | Rain* | Wind** | Luminosity | Snow |
|---|---|---|---|---|---|---|---|
| 1777707350 | 37.78° C | 51% | 1007 hPa | - | - | 1 W/m² | - |
| 1777706728 | 38.33° C | 51% | 1007 hPa | - | - | 1 W/m² | - |
| 1777706106 | 38.33° C | 50% | 1007 hPa | - | - | 1 W/m² | - |
| 1777705484 | 38.33° C | 51% | 1007 hPa | - | - | 1 W/m² | - |
| 1777705102 | 38.33° C | 50% | 1007 hPa | - | - | 2 W/m² | - |
| 1777704430 | 38.33° C | 51% | 1008 hPa | - | - | 1 W/m² | - |
| 1777703789 | 38.89° C | 50% | 1008 hPa | - | - | 3 W/m² | - |
| 1777703385 | 38.33° C | 51% | 1008 hPa | - | - | 3 W/m² | - |
| 1777702762 | 38.33° C | 52% | 1008 hPa | - | - | 3 W/m² | - |
| 1777702140 | 37.78° C | 51% | 1008 hPa | - | - | 3 W/m² | - |
| 1777701518 | 37.22° C | 55% | 1009 hPa | - | - | 3 W/m² | - |
| 1777700896 | 38.33° C | 51% | 1009 hPa | - | - | 3 W/m² | - |
| 1777700274 | 37.78° C | 53% | 1009 hPa | - | - | 3 W/m² | - |
| 1777699652 | 37.78° C | 53% | 1009 hPa | - | - | 1 W/m² | - |
| 1777699030 | 37.78° C | 53% | 1009 hPa | - | - | 1 W/m² | - |
| 1777698408 | 37.78° C | 56% | 1009 hPa | - | - | 3 W/m² | - |
| 1777697786 | 37.22° C | 56% | 1009 hPa | - | - | 2 W/m² | - |
| 1777697164 | 37.22° C | 56% | 1010 hPa | - | - | 3 W/m² | - |
| 1777696542 | 36.11° C | 60% | 1010 hPa | - | - | 2 W/m² | - |
| 1777695920 | 36.11° C | 59% | 1010 hPa | - | - | 2 W/m² | - |
| 1777695297 | 36.67° C | 60% | 1010 hPa | - | - | 2 W/m² | - |
| 1777694675 | 36.11° C | 65% | 1010 hPa | - | - | 2 W/m² | - |
| 1777694053 | 36.11° C | 65% | 1010 hPa | - | - | 2 W/m² | - |
| 1777693431 | 36.11° C | 68% | 1010 hPa | - | - | 2 W/m² | - |
| 1777692809 | 35.56° C | 71% | 1011 hPa | - | - | 2 W/m² | - |
* Rain since midnight (hover to see other rain measurements)
** Current wind speed in m/s (hover to see current wind gust speed)